Visibility
15.0 15.0 15.0 15.0 15.0 15.0 15.0 15.0 15.0 15.0 15.0 15.0 15.0 15.0 15.0 15.0 14.5 15.0 15.0 14.1 10.8 10.5 8.6 11.5 5.1 9.1 10.4
15.0 15.0 15.0 15.0 15.0 15.0 15.0 15.0 15.0 15.0 15.0 15.0 15.0 15.0 15.0 15.0 14.9 15.0 14.8 14.9 14.8 15.0 15.0 12.6 10.3 12.9 2.8
15.0 15.0 15.0 15.0 15.0 15.0 15.0 15.0 15.0 15.0 15.0 15.0 15.0 15.0 15.0 15.0 15.0 15.0 15.0 15.0 15.0 15.0 15.0 14.2 15.0 14.6 13.7
15.0 15.0 15.0 15.0 15.0 15.0 15.0 15.0 15.0 15.0 15.0 15.0 15.0 15.0 15.0 15.0 15.0 15.0 15.0 15.0 15.0 15.0 10.0 14.3 12.1 14.7 14.0
15.0 15.0 13.5 15.0 15.0 15.0 15.0 15.0 15.0 15.0 15.0 15.0 15.0 15.0 15.0 15.0 15.0 15.0 15.0 15.0 14.8 10.1 10.0 12.2 15.0 15.0 15.0
10.5 6.0 15.0 15.0 15.0 15.0 15.0 15.0 4.1 15.0 15.0 15.0 15.0 15.0 15.0 15.0 15.0 15.0 15.0 15.0 8.5 15.0 15.0 15.0 15.0 15.0 15.0
15.0 15.0 15.0 15.0 15.0 10.9 0.7 0.1 3.7 15.0 15.0 15.0 15.0 15.0 15.0 15.0 15.0 15.0 15.0 15.0 15.0 15.0 15.0 15.0 15.0 15.0 15.0
15.0 15.0 15.0 15.0 10.1 6.2 10.2 15.0 15.0 15.0 15.0 1.1 15.0 15.0 15.0 15.0 15.0 15.0 15.0 15.0 15.0 15.0 15.0 15.0 15.0 15.0 15.0
15.0 15.0 15.0 15.0 15.0 15.0 15.0 3.2 3.4 15.0 15.0 15.0 15.0 15.0 15.0 15.0 15.0 15.0 15.0 15.0 15.0 15.0 15.0 15.0 15.0 15.0 15.0
15.0 15.0 15.0 15.0 15.0 15.0 15.0 0.1 0.4 0.3 15.0 0.7 5.8 8.5 0.4 15.0 15.0 15.0 15.0 15.0 15.0 15.0 15.0 15.0 15.0 15.0 14.7
15.0 15.0 15.0 15.0 15.0 15.0 15.0 1.3 0.1 0.2 15.0 0.7 0.2 3.4 0.3 1.5 15.0 15.0 15.0 15.0 15.0 15.0 15.0 15.0 15.0 15.0 5.2
15.0 15.0 15.0 15.0 15.0 15.0 15.0 15.0 15.0 2.8 14.7 11.0 0.1 0.2 0.1 0.4 12.0 15.0 15.0 15.0 15.0 15.0 15.0 15.0 15.0 15.0 15.0
15.0 15.0 15.0 15.0 15.0 10.5 14.2 15.0 15.0 15.0 15.0 15.0 9.5 0.5 0.2 0.2 0.3 3.3 15.0 15.0 15.0 15.0 15.0 15.0 15.0 15.0 4.3
1.4 13.1 13.9 7.2 5.9 15.0 0.6 2.8 0.5 14.3 15.0 15.0 15.0 9.8 0.1 0.4 0.7 0.3 14.9 2.7 15.0 15.0 15.0 15.0 15.0 15.0 14.7
1.6 1.2 3.3 8.5 5.2 15.0 7.2 2.0 0.2 4.6 7.9 15.0 15.0 15.0 15.0 6.2 0.2 7.2 14.5 15.0 15.0 15.0 11.0 3.5 15.0 15.0 15.0
1.4 1.9 0.5 0.7 1.4 5.3 7.7 0.4 0.3 3.2 3.0 15.0 15.0 5.1 15.0 15.0 12.3 12.9 15.0 15.0 15.0 15.0 15.0 0.3 2.6 15.0 15.0
1.1 1.4 0.4 0.2 2.4 1.3 2.9 0.5 0.6 9.5 15.0 14.6 0.2 0.1 0.1 1.5 15.0 15.0 0.6 3.1 15.0 5.7 14.8 3.8 0.4 13.2 15.0